| time (UTC) | temp F | wind direction | speed MPH | gust MPH | rain 1hr in | rain 24hr in | rain mn in | humidity % | barometer mb |
| 20260901043403 | 54 | 283 | 0.0 | 0.0 | 0.00 | 0.00 | 0.00 | 88 | 1016.6 |
| 20260901042403 | 55 | 283 | 0.0 | 0.0 | 0.00 | 0.00 | 0.00 | 88 | 1016.6 |
| 20260901041424 | 55 | 283 | 0.0 | 0.0 | 0.00 | 0.00 | 0.00 | 88 | 1016.5 |
| 20260901040403 | 55 | 283 | 0.0 | 0.0 | 0.00 | 0.00 | 0.00 | 88 | 1016.5 |
| 20260901035403 | 56 | 283 | 0.0 | 0.0 | 0.00 | 0.00 | 0.00 | 87 | 1016.5 |
| 20260901034424 | 56 | 283 | 0.0 | 0.0 | 0.00 | 0.00 | 0.00 | 87 | 1016.3 |
| 20260901033403 | 56 | 283 | 0.0 | 0.0 | 0.00 | 0.00 | 0.00 | 88 | 1016.3 |
| 20260901032402 | 57 | 283 | 0.0 | 0.0 | 0.00 | 0.00 | 0.00 | 88 | 1016.4 |
| 20260901031403 | 57 | 283 | 0.0 | 0.0 | 0.00 | 0.00 | 0.00 | 88 | 1016.3 |
| 20260901030402 | 57 | 283 | 0.0 | 0.0 | 0.00 | 0.00 | 0.00 | 87 | 1016.2 |
| 20260901025403 | 57 | 283 | 0.0 | 0.0 | 0.00 | 0.00 | 0.00 | 87 | 1016.3 |
| 20260901024402 | 57 | 283 | 0.0 | 0.0 | 0.00 | 0.00 | 0.00 | 87 | 1016.4 |
| 20260901023424 | 57 | 283 | 0.0 | 0.0 | 0.00 | 0.00 | 0.00 | 86 | 1016.4 |
| 20260901022403 | 57 | 283 | 0.0 | 0.0 | 0.00 | 0.00 | 0.00 | 86 | 1016.4 |
| 20260901021402 | 57 | 283 | 0.0 | 0.0 | 0.00 | 0.01 | 0.00 | 85 | 1016.5 |
| 20260901020424 | 56 | 283 | 0.0 | 0.0 | 0.00 | 0.01 | 0.00 | 85 | 1016.5 |
| 20260901015403 | 56 | 283 | 0.0 | 0.0 | 0.00 | 0.01 | 0.00 | 85 | 1016.5 |
| 20260901014402 | 56 | 283 | 0.0 | 0.0 | 0.00 | 0.01 | 0.00 | 84 | 1016.6 |
| 20260901013445 | 56 | 283 | 0.0 | 0.0 | 0.00 | 0.01 | 0.00 | 84 | 1016.7 |
| 20260901012403 | 56 | 283 | 0.0 | 0.0 | 0.00 | 0.01 | 0.00 | 83 | 1016.7 |
| 20260901011424 | 57 | 283 | 0.0 | 0.0 | 0.00 | 0.01 | 0.00 | 83 | 1016.7 |
| 20260901010403 | 57 | 283 | 0.0 | 0.0 | 0.00 | 0.01 | 0.00 | 83 | 1016.6 |
| 20260901005403 | 57 | 283 | 0.0 | 0.0 | 0.00 | 0.01 | 0.00 | 82 | 1016.6 |
| 20260901003424 | 57 | 283 | 0.0 | 0.0 | 0.00 | 0.01 | 0.00 | 82 | 1016.6 |
| 20260901002403 | 57 | 283 | 0.0 | 0.0 | 0.00 | 0.01 | 0.00 | 83 | 1016.6 |
| 20260901001403 | 57 | 283 | 0.0 | 0.0 | 0.00 | 0.01 | 0.00 | 82 | 1016.5 |
| 20260901000408 | 58 | 283 | 0.0 | 0.0 | 0.00 | 0.01 | 0.00 | 82 | 1016.5 |
| 20260831235408 | 58 | 283 | 0.0 | 0.0 | 0.00 | 0.01 | 0.00 | 81 | 1016.4 |
| 20260831234429 | 59 | 283 | 0.0 | 0.0 | 0.00 | 0.01 | 0.00 | 81 | 1016.5 |
| 20260831233408 | 60 | 283 | 0.0 | 0.0 | 0.00 | 0.01 | 0.00 | 80 | 1016.5 |
| 20260831232408 | 61 | 283 | 0.0 | 0.0 | 0.00 | 0.01 | 0.00 | 80 | 1016.4 |
| 20260831231408 | 62 | 283 | 0.0 | 0.0 | 0.00 | 0.01 | 0.00 | 81 | 1016.4 |
| 20260831230429 | 63 | 283 | 0.0 | 0.0 | 0.00 | 0.01 | 0.00 | 79 | 1016.4 |
| 20260831225408 | 64 | 283 | 0.0 | 0.0 | 0.00 | 0.01 | 0.00 | 78 | 1016.5 |
| 20260831224451 | 66 | 283 | 0.0 | 0.0 | 0.00 | 0.01 | 0.00 | 78 | 1016.6 |
| 20260831223429 | 67 | 283 | 0.0 | 0.0 | 0.00 | 0.01 | 0.00 | 74 | 1016.6 |
| 20260831222408 | 69 | 283 | 0.0 | 0.0 | 0.00 | 0.01 | 0.00 | 71 | 1016.7 |
| 20260831221408 | 71 | 283 | 0.0 | 0.0 | 0.00 | 0.01 | 0.00 | 65 | 1016.6 |
| 20260831220408 | 75 | 283 | 0.0 | 0.0 | 0.00 | 0.01 | 0.00 | 58 | 1016.6 |
| 20260831215408 | 77 | 283 | 0.0 | 0.0 | 0.00 | 0.01 | 0.00 | 55 | 1016.8 |
| 20260831214408 | 77 | 283 | 0.0 | 0.0 | 0.00 | 0.01 | 0.00 | 52 | 1016.7 |
| 20260831213408 | 77 | 283 | 0.0 | 0.0 | 0.00 | 0.01 | 0.00 | 56 | 1016.7 |
| 20260831212408 | 77 | 283 | 0.0 | 2.0 | 0.00 | 0.01 | 0.00 | 55 | 1016.7 |
| 20260831211408 | 77 | 283 | 0.0 | 4.0 | 0.00 | 0.01 | 0.00 | 47 | 1016.7 |
| 20260831210408 | 78 | 281 | 0.0 | 2.0 | 0.00 | 0.01 | 0.00 | 46 | 1016.8 |
| 20260831205408 | 79 | 275 | 0.0 | 3.0 | 0.00 | 0.01 | 0.00 | 48 | 1016.8 |
| 20260831204408 | 79 | 274 | 0.0 | 0.0 | 0.00 | 0.01 | 0.00 | 43 | 1016.9 |
| 20260831203408 | 79 | 273 | 0.0 | 1.0 | 0.00 | 0.01 | 0.00 | 42 | 1016.9 |
| 20260831202408 | 79 | 274 | 0.0 | 2.0 | 0.00 | 0.01 | 0.00 | 49 | 1016.9 |
| 20260831201408 | 79 | 275 | 0.0 | 0.0 | 0.00 | 0.01 | 0.00 | 49 | 1016.8 |
| 20260831200408 | 79 | 268 | 0.0 | 3.0 | 0.00 | 0.01 | 0.00 | 47 | 1017.0 |
| 20260831195408 | 78 | 268 | 0.0 | 2.0 | 0.00 | 0.01 | 0.00 | 44 | 1017.1 |
| 20260831194408 | 79 | 268 | 0.0 | 4.0 | 0.00 | 0.01 | 0.00 | 44 | 1017.3 |
| 20260831193408 | 79 | 267 | 1.0 | 4.0 | 0.00 | 0.01 | 0.00 | 50 | 1017.6 |
| 20260831192408 | 79 | 261 | 0.0 | 6.0 | 0.00 | 0.01 | 0.00 | 48 | 1017.7 |
| 20260831191407 | 78 | 252 | 0.0 | 4.0 | 0.00 | 0.01 | 0.00 | 46 | 1017.8 |
| 20260831190408 | 77 | 268 | 1.0 | 8.0 | 0.00 | 0.01 | 0.00 | 45 | 1017.8 |
| 20260831185408 | 77 | 274 | 1.0 | 8.0 | 0.00 | 0.01 | 0.00 | 43 | 1017.8 |
| 20260831184408 | 77 | 200 | 1.0 | 4.0 | 0.00 | 0.01 | 0.00 | 53 | 1017.9 |
| 20260831183407 | 76 | 215 | 2.0 | 6.0 | 0.00 | 0.02 | 0.00 | 59 | 1018.0 |
| 20260831182408 | 76 | 195 | 3.0 | 6.0 | 0.00 | 0.02 | 0.00 | 62 | 1018.0 |
| 20260831181408 | 76 | 226 | 3.0 | 6.0 | 0.00 | 0.03 | 0.00 | 59 | 1018.1 |
| 20260831180408 | 76 | 235 | 2.0 | 7.0 | 0.00 | 0.03 | 0.00 | 60 | 1018.3 |
| 20260831175407 | 76 | 239 | 4.0 | 8.0 | 0.00 | 0.03 | 0.00 | 59 | 1018.3 |
| 20260831174408 | 77 | 268 | 0.0 | 4.0 | 0.00 | 0.03 | 0.00 | 65 | 1018.3 |
| 20260831173407 | 75 | 272 | 1.0 | 8.0 | 0.00 | 0.03 | 0.00 | 69 | 1018.4 |
| 20260831172429 | 74 | 247 | 1.0 | 6.0 | 0.00 | 0.03 | 0.00 | 65 | 1018.4 |
| 20260831171408 | 75 | 250 | 2.0 | 5.0 | 0.00 | 0.03 | 0.00 | 62 | 1018.4 |
| 20260831170407 | 76 | 264 | 3.0 | 7.0 | 0.00 | 0.03 | 0.00 | 63 | 1018.4 |
| 20260831165411 | 75 | 248 | 2.0 | 4.0 | 0.00 | 0.03 | 0.00 | 69 | 1018.5 |
| 20260831164407 | 74 | 246 | 2.0 | 5.0 | 0.00 | 0.03 | 0.00 | 64 | 1018.7 |
| 20260831163408 | 74 | 260 | 1.0 | 6.0 | 0.00 | 0.03 | 0.00 | 68 | 1018.8 |
| 20260831162407 | 74 | 274 | 1.0 | 4.0 | 0.00 | 0.03 | 0.00 | 72 | 1018.7 |
| 20260831161408 | 74 | 274 | 1.0 | 6.0 | 0.00 | 0.03 | 0.00 | 66 | 1018.8 |
| 20260831160429 | 74 | 277 | 0.0 | 3.0 | 0.00 | 0.03 | 0.00 | 65 | 1018.9 |
| 20260831155407 | 73 | 276 | 0.0 | 4.0 | 0.00 | 0.03 | 0.00 | 69 | 1019.1 |
| 20260831154408 | 74 | 32 | 0.0 | 4.0 | 0.00 | 0.03 | 0.00 | 66 | 1019.2 |
| 20260831153407 | 73 | 354 | 0.0 | 2.0 | 0.00 | 0.03 | 0.00 | 71 | 1019.2 |
| 20260831152429 | 72 | 354 | 1.0 | 5.0 | 0.00 | 0.03 | 0.00 | 69 | 1019.2 |
| 20260831151408 | 72 | 355 | 0.0 | 3.0 | 0.00 | 0.03 | 0.00 | 68 | 1019.3 |
| 20260831150428 | 72 | 359 | 0.0 | 2.0 | 0.00 | 0.03 | 0.00 | 69 | 1019.4 |
| 20260831145408 | 72 | 355 | 0.0 | 2.0 | 0.00 | 0.03 | 0.00 | 75 | 1019.5 |
| 20260831144407 | 71 | 355 | 0.0 | 3.0 | 0.00 | 0.03 | 0.00 | 76 | 1019.4 |
| 20260831143408 | 69 | 347 | 0.0 | 5.0 | 0.00 | 0.03 | 0.00 | 77 | 1019.4 |
| 20260831142428 | 68 | 350 | 0.0 | 6.0 | 0.00 | 0.03 | 0.00 | 80 | 1019.3 |
| 20260831141408 | 69 | 354 | 0.0 | 3.0 | 0.00 | 0.03 | 0.00 | 78 | 1019.6 |
| 20260831140408 | 69 | 354 | 1.0 | 4.0 | 0.00 | 0.03 | 0.00 | 77 | 1019.5 |
| 20260831135408 | 68 | 355 | 0.0 | 1.0 | 0.00 | 0.03 | 0.00 | 81 | 1019.8 |
| 20260831134408 | 67 | 355 | 0.0 | 1.0 | 0.00 | 0.03 | 0.00 | 85 | 1019.7 |
| 20260831133407 | 65 | 355 | 0.0 | 1.0 | 0.00 | 0.03 | 0.00 | 88 | 1019.7 |
| 20260831132450 | 63 | 355 | 0.0 | 2.0 | 0.00 | 0.03 | 0.00 | 90 | 1019.8 |
| 20260831131408 | 62 | 355 | 0.0 | 0.0 | 0.00 | 0.03 | 0.00 | 93 | 1019.8 |
| 20260831130407 | 61 | 355 | 0.0 | 0.0 | 0.00 | 0.03 | 0.00 | 96 | 1019.9 |
| 20260831125408 | 60 | 355 | 0.0 | 0.0 | 0.00 | 0.03 | 0.00 | 97 | 1019.9 |
| 20260831124407 | 59 | 355 | 0.0 | 0.0 | 0.00 | 0.03 | 0.00 | 97 | 1019.9 |
| 20260831123408 | 58 | 355 | 0.0 | 1.0 | 0.00 | 0.03 | 0.00 | 97 | 1020.0 |
| 20260831122407 | 56 | 355 | 0.0 | 0.0 | 0.00 | 0.03 | 0.00 | 97 | 1020.0 |
| 20260831121407 | 53 | 355 | 0.0 | 0.0 | 0.00 | 0.03 | 0.00 | 96 | 1019.9 |
| 20260831120428 | 50 | 355 | 0.0 | 0.0 | 0.00 | 0.03 | 0.00 | 96 | 1019.9 |
| 20260831114407 | 48 | 355 | 0.0 | 0.0 | 0.00 | 0.03 | 0.00 | 95 | 1019.8 |
| 20260831113407 | 48 | 355 | 0.0 | 0.0 | 0.00 | 0.03 | 0.00 | 95 | 1019.7 |
| 20260831112408 | 48 | 355 | 0.0 | 0.0 | 0.00 | 0.03 | 0.00 | 95 | 1019.5 |
| 20260831111408 | 47 | 355 | 0.0 | 0.0 | 0.00 | 0.03 | 0.00 | 94 | 1019.5 |
| 20260831110407 | 47 | 355 | 0.0 | 0.0 | 0.00 | 0.03 | 0.00 | 94 | 1019.4 |
| 20260831105407 | 47 | 355 | 0.0 | 0.0 | 0.00 | 0.03 | 0.00 | 94 | 1019.2 |
| 20260831104407 | 47 | 355 | 0.0 | 0.0 | 0.00 | 0.04 | 0.00 | 94 | 1019.0 |
| 20260831103407 | 47 | 355 | 0.0 | 0.0 | 0.00 | 0.05 | 0.00 | 94 | 1018.9 |
| 20260831102407 | 48 | 355 | 0.0 | 0.0 | 0.00 | 0.06 | 0.00 | 94 | 1018.8 |
| 20260831101407 | 48 | 355 | 0.0 | 0.0 | 0.00 | 0.06 | 0.00 | 94 | 1018.9 |
| 20260831100407 | 47 | 355 | 0.0 | 0.0 | 0.00 | 0.06 | 0.00 | 94 | 1018.9 |
| 20260831095407 | 48 | 355 | 0.0 | 0.0 | 0.00 | 0.06 | 0.00 | 94 | 1018.8 |
| 20260831094429 | 48 | 355 | 0.0 | 0.0 | 0.00 | 0.06 | 0.00 | 94 | 1018.7 |
| 20260831093428 | 48 | 355 | 0.0 | 0.0 | 0.00 | 0.06 | 0.00 | 94 | 1018.7 |
| 20260831092407 | 48 | 355 | 0.0 | 0.0 | 0.00 | 0.06 | 0.00 | 94 | 1018.6 |
| 20260831091429 | 48 | 355 | 0.0 | 0.0 | 0.00 | 0.06 | 0.00 | 94 | 1018.5 |
| 20260831090407 | 48 | 355 | 0.0 | 0.0 | 0.00 | 0.06 | 0.00 | 94 | 1018.4 |
| 20260831085407 | 49 | 355 | 0.0 | 0.0 | 0.00 | 0.06 | 0.00 | 93 | 1018.4 |
| 20260831084407 | 49 | 355 | 0.0 | 0.0 | 0.00 | 0.06 | 0.00 | 94 | 1018.4 |
| 20260831083407 | 49 | 355 | 0.0 | 0.0 | 0.00 | 0.06 | 0.00 | 94 | 1018.5 |
| 20260831082407 | 49 | 355 | 0.0 | 0.0 | 0.00 | 0.06 | 0.00 | 93 | 1018.4 |
| 20260831081408 | 50 | 355 | 0.0 | 0.0 | 0.00 | 0.06 | 0.00 | 94 | 1018.4 |
| 20260831080407 | 50 | 355 | 0.0 | 0.0 | 0.00 | 0.06 | 0.00 | 93 | 1018.3 |
| 20260831075408 | 50 | 355 | 0.0 | 0.0 | 0.00 | 0.06 | 0.00 | 94 | 1018.2 |
| 20260831074407 | 50 | 355 | 0.0 | 0.0 | 0.00 | 0.06 | 0.00 | 94 | 1018.2 |
| 20260831073406 | 50 | 355 | 0.0 | 0.0 | 0.00 | 0.06 | 0.00 | 93 | 1018.2 |
| 20260831072407 | 51 | 355 | 0.0 | 0.0 | 0.00 | 0.06 | 0.00 | 93 | 1018.1 |
| 20260831071407 | 51 | 355 | 0.0 | 0.0 | 0.00 | 0.06 | 0.00 | 93 | 1018.2 |
| 20260831070407 | 51 | 355 | 0.0 | 0.0 | 0.00 | 0.06 | 0.00 | 93 | 1018.0 |
| 20260831065407 | 51 | 355 | 0.0 | 0.0 | 0.00 | 0.06 | 0.00 | 93 | 1018.0 |
| 20260831064407 | 52 | 355 | 0.0 | 0.0 | 0.00 | 0.06 | 0.00 | 93 | 1017.9 |
| 20260831063408 | 52 | 355 | 0.0 | 0.0 | 0.00 | 0.06 | 0.00 | 93 | 1017.9 |
| 20260831062407 | 52 | 355 | 0.0 | 0.0 | 0.00 | 0.06 | 0.00 | 92 | 1018.0 |
| 20260831061407 | 53 | 355 | 0.0 | 0.0 | 0.00 | 0.06 | 0.00 | 93 | 1018.0 |
| 20260831060407 | 53 | 355 | 0.0 | 0.0 | 0.00 | 0.06 | 0.00 | 93 | 1018.0 |
| 20260831055407 | 53 | 355 | 0.0 | 0.0 | 0.00 | 0.06 | 0.00 | 93 | 1018.0 |
| 20260831054428 | 53 | 355 | 0.0 | 0.0 | 0.00 | 0.06 | 0.00 | 93 | 1018.0 |
| 20260831053407 | 53 | 355 | 0.0 | 0.0 | 0.00 | 0.06 | 0.00 | 92 | 1018.1 |
| 20260831052407 | 54 | 355 | 0.0 | 0.0 | 0.00 | 0.06 | 0.00 | 92 | 1018.2 |
| 20260831051428 | 54 | 355 | 0.0 | 0.0 | 0.00 | 0.06 | 0.00 | 91 | 1018.2 |
| 20260831050407 | 54 | 355 | 0.0 | 0.0 | 0.00 | 0.06 | 0.00 | 91 | 1018.2 |
| 20260831045408 | 54 | 355 | 0.0 | 0.0 | 0.00 | 0.06 | 0.00 | 91 | 1018.1 |
| 20260831044428 | 55 | 355 | 0.0 | 0.0 | 0.00 | 0.06 | 0.00 | 91 | 1018.0 |